Tracking 19490 objects as of 23-Jan-2019
HD Live streaming from Space Station
objects crossing your sky now

COSMOS 1937

Track COSMOS 1937 now!
10-day predictions
COSMOS 1937 is classified as:


NORAD ID: 19038
Int'l Code: 1988-029A
Perigee: 764.9 km
Apogee: 798.2 km
Inclination: 74.0 °
Period: 100.3 minutes
Semi major axis: 7152 km
RCS: 2.2121 m2 (large)
Launch date: April 5, 1988
Source: Commonwealth of Independent States (former USSR) (CIS)
Launch site: PLESETSK MISSILE AND SPACE COMPLEX (PKMTR)
aabbcc
Your satellite tracking list
Your tracking list is empty




NASA's NSSDC Master Catalog

Two Line Element Set (TLE):
1 19038U 88029A   19023.18555441 -.00000028  00000-0 -62295-6 0  9998
2 19038  74.0461  17.7984 0023260  46.6488  32.5386 14.35197581612325
Source of the keplerian elements: AFSPC